STARLINK-35620

Last updated on Tue Dec 16 2025 00:02:05 GMT+0000 (Coordinated Universal Time)

1 66474U 25262U 25349.24545047 .00014865 00000+0 24524-3 0 9991 2 66474 43.0010 56.3576 0024049 204.0327 155.9413 15.51772948 5952
UTC large
Height (km)
Speed (km/s)
/
Latitude / Longitude
Inclination (degrees)
Orbital Period (minutes)
Azimuth
Elevation
Range (km)
Doppler Factor

Next 0 passes for location: London (51.5072 / 0.1276)

Sorry there are no passes over London.